Flag for U.S.A. Weather past 2 weeks in Neenah, Wisconsin, U.S.A.

Now
19 °F

Overcast.


Feels Like: 7 °F
Forecast: 11 / 20 °F
Wind: 12 mph from Northwest

Location: Appleton / Outagamie

Current Time: Jan 30, 2015 at 3:03:34 AM

Latest Report: Jan 30, 2015 at 2:15 AM


Visibility: 10 mi

Pressure: 30.41 "Hg

Humidity: 68%

Dew point: 10 °F

Location of NeenahLocation

Historic Weather in Neenah — Graph

°F

Neenah temperature yesterday

Maximum temperature yesterday: 34 °F (at 1:45 PM)
Minimum temperature yesterday: 21 °F (at 11:15 PM)
Average temperature yesterday: 29 °F

Past Weeks' High & Low Weather Summary

 TemperatureHumidityPressure
High39 °F (Jan 17, 1:45 PM)100% (Jan 19, 8:45 PM)30.41 "Hg (Jan 19, 8:45 PM)
Low12 °F (Jan 26, 1:15 AM)50% (Jan 29, 8:45 PM)29.44 "Hg (Jan 17, 2:45 PM)
Average26 °F77%29.96 "Hg
* Reported Jan 15 1:15 AM — Jan 30 1:55 AM, Neenah, Weather by CustomWeather, © 2014

Note: Actual official high and low records may vary slightly from our data, if they occured in-between our weather recording intervals... More about our weather records

Advertising

Neenah weather history for previous 24 hours

 ConditionsComfort  
Time TempWeatherWind HumidityBarometerVisibility
1:55 AM
Jan 30
19 °FOvercast.10 mph68%30.41 "Hg10 mi
1:35 AM19 °FOvercast.10 mph68%30.40 "Hg10 mi
1:15 AM21 °FOvercast.13 mph63%30.39 "Hg10 mi
12:55 AM19 °FPassing clouds.10 mph68%30.38 "Hg10 mi
12:35 AM19 °FPartly cloudy.9 mph73%30.37 "Hg10 mi
12:15 AM21 °FPassing clouds.9 mph68%30.36 "Hg10 mi
11:55 PM
Jan 29
21 °FPassing clouds.12 mph68%30.36 "Hg10 mi
11:15 PM21 °FPassing clouds.12 mph74%30.35 "Hg10 mi
10:55 PM23 °FMostly cloudy.14 mph68%30.34 "Hg10 mi
10:35 PM23 °FLight snow. Overcast.13 mph74%30.33 "Hg3 mi
10:15 PM23 °FLight snow. Overcast.14 mph68%30.32 "Hg10 mi
8:45 PM25 °FMostly cloudy.18 mph50%30.29 "Hg10 mi
7:45 PM27 °FMostly cloudy.21 mph54%30.25 "Hg10 mi
6:45 PM27 °FMostly cloudy.20 mph64%30.19 "Hg10 mi
4:45 PM30 °FPartly sunny.23 mph59%30.08 "Hg10 mi
3:45 PM32 °FPartly sunny.21 mph55%30.04 "Hg10 mi
2:45 PM34 °FOvercast.18 mph60%29.99 "Hg10 mi
1:45 PM34 °FOvercast.16 mph65%29.95 "Hg10 mi
12:45 PM32 °FOvercast.20 mph69%29.94 "Hg10 mi
11:45 AM32 °FOvercast.20 mph69%29.93 "Hg7 mi
10:45 AM32 °FOvercast.20 mph75%29.92 "Hg7 mi
9:45 AM30 °FOvercast.15 mph80%29.90 "Hg7 mi
8:45 AM30 °FOvercast.14 mph80%29.87 "Hg7 mi
7:45 AM28 °FIce fog.12 mph86%29.84 "Hg5 mi
6:45 AM28 °FIce fog.17 mph86%29.81 "Hg5 mi
5:45 AM28 °FMostly cloudy.13 mph86%29.78 "Hg7 mi
4:15 AM30 °FMostly cloudy.7 mph80%29.75 "Hg7 mi
3:55 AM30 °FMostly cloudy.6 mph75%29.76 "Hg7 mi
3:35 AM30 °FOvercast.5 mph80%29.77 "Hg10 mi
3:15 AM30 °FOvercast.5 mph80%29.77 "Hg10 mi
Weather by CustomWeather, © 2014

See weather overviewHow to use our weather pages